Tracy, MN

7:03 AM CDT on July 30, 2016 (GMT -0500)
Tracy

Weather History for KTKC - May, 2013

Change the Weather History Date:

Friday, May 17, 2013

  Actual Average (KMML) Record (KMML)
Temperature  
Mean Temperature 68 °F -  
Max Temperature 76 °F 72 °F 95 °F (1987)
Min Temperature 59 °F 48 °F 26 °F (2002)
Cooling Degree Days 2    
Growing Degree Days 18 (Base 50)    
Moisture  
Dew Point 63 °F    
Average Humidity 87    
Maximum Humidity 96    
Minimum Humidity 72    
Precipitation  
Precipitation 0.13 in - - ()
Sea Level Pressure  
Sea Level Pressure 29.87 in    
Wind  
Wind Speed 3 mph (SE)    
Max Wind Speed 18 mph    
Max Gust Speed 26 mph    
Visibility 7 miles    
Events Rain , Thunderstorm    
Averages and records for this station are not official NWS values.
T = Trace of Precipitation, MM = Missing Value Source: NWS Daily Summary

Daily Weather History Graph

Daily Weather History Graph

Search for Another Location

Airport or City:

Trip Planner

Search our weather history database for the weather conditions in past years. The results will help you decide how hot, cold, wet, or windy it might be!

Date:

Astronomy

May. 17, 2013 Rise Set
Actual Time 5:53 AM CDT 8:45 PM CDT
Civil Twilight 5:19 AM CDT 9:19 PM CDT
Nautical Twilight 4:36 AM CDT 10:02 PM CDT
Astronomical Twilight 3:46 AM CDT 10:53 PM CDT
Moon 12:33 PM CDT (5/17) 1:32 AM CDT (5/17)
Length of Visible Light 15h 59m
Length of Day
14h 51m
Waxing Crescent, 45% of the Moon is Illuminated
May 17
Waxing Crescent
May 17
First Quarter
May 24
Full
May 31
Last Quarter
Jun 8
New

Hourly Weather History & Observations

Time (CDT) Temp. Dew Point Humidity Pressure Visibility Wind Dir Wind Speed Gust Speed Precip Events Conditions
12:13 AM 62.2 °F 56.5 °F 81% 29.87 in 10.0 mi Calm Calm - N/A   Light Drizzle
12:34 AM 62.2 °F 56.5 °F 81% 29.87 in 10.0 mi Calm Calm - N/A   Overcast
12:53 AM 61.7 °F 57.4 °F 86% 29.87 in 10.0 mi Calm Calm - N/A Rain Light Rain
1:13 AM 61.3 °F 58.1 °F 89% 29.88 in 5.0 mi Calm Calm - 0.02 in Rain Rain
1:34 AM 60.4 °F 58.5 °F 93% 29.89 in 5.0 mi Calm Calm - 0.08 in Rain Rain
1:54 AM 60.1 °F 58.6 °F 95% 29.88 in 4.0 mi Calm Calm - 0.13 in Rain Rain
2:14 AM 60.4 °F 59.0 °F 95% 29.86 in 5.0 mi Calm Calm - N/A   Light Drizzle
2:33 AM 60.3 °F 59.0 °F 96% 29.87 in 5.0 mi Calm Calm - N/A Rain Light Rain
2:54 AM 60.4 °F 59.0 °F 95% 29.86 in 5.0 mi Calm Calm - N/A   Overcast
3:13 AM 60.3 °F 59.0 °F 96% 29.86 in 5.0 mi Calm Calm - N/A   Mostly Cloudy
3:33 AM 59.9 °F 58.6 °F 96% 29.86 in 3.0 mi Calm Calm - N/A   Mostly Cloudy
3:53 AM 60.3 °F 59.2 °F 96% 29.86 in 5.0 mi Calm Calm - N/A   Overcast
4:13 AM 60.4 °F 59.0 °F 95% 29.86 in 5.0 mi Calm Calm - N/A   Overcast
4:33 AM 60.1 °F 59.0 °F 96% 29.86 in 4.0 mi Calm Calm - N/A   Light Drizzle
4:53 AM 60.3 °F 59.0 °F 96% 29.86 in 4.0 mi Calm Calm - N/A   Mostly Cloudy
5:13 AM 60.3 °F 59.0 °F 96% 29.86 in 4.0 mi Calm Calm - N/A   Mostly Cloudy
5:33 AM 60.8 °F 59.4 °F 95% 29.86 in 3.0 mi Calm Calm - N/A   Overcast
5:53 AM 61.0 °F 59.9 °F 96% 29.87 in 3.0 mi Calm Calm - N/A   Overcast
6:13 AM 61.2 °F 59.9 °F 96% 29.87 in 3.0 mi Calm Calm - N/A   Overcast
6:34 AM 61.3 °F 59.9 °F 95% 29.87 in 4.0 mi Calm Calm - N/A   Overcast
7:14 AM 61.9 °F 60.4 °F 95% 29.88 in 5.0 mi Calm Calm - N/A   Overcast
7:33 AM 62.1 °F 60.6 °F 95% 29.89 in 5.0 mi Calm Calm - N/A   Overcast
7:54 AM 62.2 °F 60.8 °F 95% 29.89 in 5.0 mi Calm Calm - N/A   Overcast
8:13 AM 62.6 °F 60.8 °F 94% 29.89 in 7.0 mi Calm Calm - N/A   Overcast
8:34 AM 62.6 °F 60.8 °F 94% 29.90 in 7.0 mi Calm Calm - N/A   Overcast
8:54 AM 63.0 °F 61.2 °F 94% 29.90 in 7.0 mi Calm Calm - N/A   Overcast
9:13 AM 63.9 °F 61.9 °F 93% 29.90 in 10.0 mi Calm Calm - N/A   Overcast
9:34 AM 64.6 °F 61.9 °F 91% 29.89 in 10.0 mi Calm Calm - N/A   Overcast
9:53 AM 64.8 °F 62.2 °F 92% 29.89 in 10.0 mi Calm Calm - N/A   Overcast
10:13 AM 66.2 °F 62.6 °F 88% 29.89 in 10.0 mi Calm Calm - N/A   Overcast
10:34 AM 68.4 °F 63.7 °F 85% 29.89 in 10.0 mi SSE 6.9 mph 16.1 mph N/A   Overcast
10:53 AM 69.3 °F 63.9 °F 83% 29.89 in 10.0 mi SSE 12.7 mph 19.6 mph N/A   Overcast
11:13 AM 70.3 °F 64.2 °F 81% 29.89 in 10.0 mi SSE 10.4 mph 20.7 mph N/A   Overcast
11:33 AM 70.7 °F 64.2 °F 80% 29.89 in 10.0 mi SSE 11.5 mph 17.3 mph N/A   Overcast
11:54 AM 72.5 °F 64.6 °F 76% 29.89 in 10.0 mi SSE 12.7 mph - N/A   Overcast
12:13 PM 72.5 °F 64.6 °F 76% 29.88 in 10.0 mi Calm Calm - N/A   Overcast
12:33 PM 72.5 °F 64.8 °F 77% 29.88 in 10.0 mi SSE 10.4 mph - N/A   Overcast
12:53 PM 72.1 °F 64.8 °F 78% 29.88 in 10.0 mi Calm Calm - N/A   Overcast
1:13 PM 74.1 °F 65.7 °F 75% 29.87 in 10.0 mi Calm Calm - N/A   Overcast
1:33 PM 75.0 °F 65.8 °F 73% 29.87 in 10.0 mi SSE 5.8 mph 16.1 mph N/A   Overcast
2:14 PM 73.0 °F 65.5 °F 77% 29.86 in 10.0 mi SE 10.4 mph 17.3 mph N/A Thunderstorm Thunderstorm
2:33 PM 75.9 °F 66.7 °F 73% 29.86 in 10.0 mi ESE 10.4 mph - N/A Thunderstorm Thunderstorm
2:53 PM 75.7 °F 66.9 °F 74% 29.85 in 10.0 mi South 9.2 mph - N/A Thunderstorm Thunderstorm
3:14 PM 76.5 °F 67.1 °F 73% 29.85 in 10.0 mi SE 12.7 mph 20.7 mph N/A   Overcast
3:34 PM 73.2 °F 65.7 °F 77% 29.85 in 10.0 mi East 12.7 mph - N/A   Overcast
3:53 PM 72.0 °F 65.3 °F 79% 29.85 in 10.0 mi ESE 9.2 mph 19.6 mph N/A Thunderstorm Thunderstorm
4:13 PM 73.0 °F 65.1 °F 76% 29.85 in 10.0 mi East 16.1 mph - N/A Thunderstorm Mostly Cloudy
4:33 PM 71.2 °F 64.8 °F 80% 29.85 in 10.0 mi ESE 15.0 mph 24.2 mph N/A Thunderstorm Mostly Cloudy
4:54 PM 70.0 °F 63.3 °F 79% 29.86 in 10.0 mi ESE 17.3 mph 24.2 mph N/A Thunderstorm Mostly Cloudy
5:14 PM 71.6 °F 64.4 °F 78% 29.85 in 10.0 mi ESE 18.4 mph - N/A Thunderstorm Mostly Cloudy
5:33 PM 72.7 °F 65.1 °F 77% 29.85 in 10.0 mi SE 18.4 mph 26.5 mph N/A Thunderstorm Scattered Clouds
5:53 PM 73.6 °F 64.8 °F 74% 29.85 in 10.0 mi SE 15.0 mph 19.6 mph N/A   Clear
6:13 PM 75.2 °F 65.7 °F 72% 29.85 in 10.0 mi ESE 17.3 mph 23.0 mph N/A   Clear
6:33 PM 73.0 °F 66.4 °F 80% 29.84 in 7.0 mi East 12.7 mph 23.0 mph N/A   Clear
6:54 PM 72.1 °F 65.7 °F 80% 29.85 in 7.0 mi ESE 16.1 mph 24.2 mph N/A   Clear
7:14 PM 71.6 °F 65.1 °F 80% 29.84 in 7.0 mi SE 10.4 mph 21.9 mph N/A   Clear
7:33 PM 71.8 °F 65.3 °F 80% 29.84 in 7.0 mi SE 15.0 mph 21.9 mph N/A   Clear
7:54 PM 71.2 °F 65.8 °F 83% 29.84 in 7.0 mi SE 13.8 mph 19.6 mph N/A   Clear
8:13 PM 70.7 °F 65.5 °F 83% 29.85 in 7.0 mi SE 11.5 mph 17.3 mph N/A   Scattered Clouds
8:34 PM 69.6 °F 64.6 °F 84% 29.85 in 10.0 mi ESE 4.6 mph - N/A   Clear
8:54 PM 68.0 °F 64.6 °F 89% 29.86 in 5.0 mi Calm Calm - N/A   Clear
9:14 PM 66.6 °F 64.6 °F 93% 29.87 in 3.0 mi Calm Calm - N/A   Clear
9:33 PM 66.2 °F 64.4 °F 94% 29.88 in 3.0 mi Calm Calm - N/A   Mist
9:53 PM 66.2 °F 64.4 °F 94% 29.87 in 3.0 mi ESE 4.6 mph - N/A   Mostly Cloudy
10:14 PM 65.8 °F 64.0 °F 94% 29.87 in 3.0 mi ESE 11.5 mph 16.1 mph N/A   Overcast
10:34 PM 65.5 °F 63.7 °F 94% 29.88 in 4.0 mi ESE 3.5 mph - N/A   Overcast
10:53 PM 65.3 °F 63.5 °F 94% 29.88 in 3.0 mi ESE 11.5 mph 16.1 mph N/A   Overcast
11:34 PM 64.8 °F 63.1 °F 94% 29.87 in 3.0 mi Calm Calm - N/A   Overcast
11:53 PM 64.6 °F 63.1 °F 95% 29.87 in 3.0 mi Calm Calm - N/A   Mostly Cloudy